Weather History for KCXP - May, 2013

Change the Weather History Date:

Wednesday, May 8, 2013

  Actual Average Record
Temperature  
Mean Temperature 56 °F -  
Max Temperature 66 °F 70 °F 77 °F (2012)
Min Temperature 46 °F 39 °F 33 °F (2012)
Degree Days  
Heating Degree Days 9    
Growing Degree Days 6 (Base 50)    
Moisture  
Dew Point 40 °F    
Average Humidity 62    
Maximum Humidity 93    
Minimum Humidity 28    
Precipitation  
Precipitation 0.00 in - - ()
Sea Level Pressure  
Sea Level Pressure 30.08 in    
Wind  
Wind Speed 3 mph (NNW)    
Max Wind Speed 13 mph    
Max Gust Speed 21 mph    
Visibility 10 miles    
Events Rain , Thunderstorm    
Averages and records for this station are not official NWS values.
T = Trace of Precipitation, MM = Missing Value Source: NWS Daily Summary

Daily Weather History Graph

Daily Weather History Graph

Search for Another Location

Airport or City:

Trip Planner

Search our weather history database for the weather conditions in past years. The results will help you decide how hot, cold, wet, or windy it might be!

Date:

Astronomy

May. 08, 2013 Rise Set
Actual Time 5:52 AM PDT 7:59 PM PDT
Civil Twilight 5:22 AM PDT 8:28 PM PDT
Nautical Twilight 4:46 AM PDT 9:05 PM PDT
Astronomical Twilight 4:07 AM PDT 9:44 PM PDT
Moon 5:02 AM PDT (5/8) 7:02 PM PDT (5/8)
Length of Visible Light 15h 06m
Length of Day
14h 06m
Waning Crescent, 1% of the Moon is Illuminated
May 8
Waning Crescent
May 9
New
May 17
First Quarter
May 24
Full
May 31
Last Quarter

Hourly Weather History & Observations

Time (PDT) Temp. Windchill Dew Point Humidity Pressure Visibility Wind Dir Wind Speed Gust Speed Precip Events Conditions
12:15 AM 46.4 °F 44.3 °F 42.8 °F 87% 30.06 in 10.0 mi South 4.6 mph - N/A Rain Light Rain
12:35 AM 46.4 °F 44.3 °F 42.8 °F 87% 30.06 in 10.0 mi SSW 4.6 mph - N/A   Overcast
12:55 AM 46.4 °F - 42.8 °F 87% 30.06 in 8.0 mi Calm Calm - N/A Rain Light Rain
1:15 AM 46.4 °F 43.5 °F 42.8 °F 87% 30.06 in 10.0 mi SE 5.8 mph - N/A Rain Light Rain
1:35 AM 46.4 °F - 41.0 °F 81% 30.06 in 10.0 mi Calm Calm - N/A Rain Light Rain
1:55 AM 46.4 °F - 41.0 °F 81% 30.05 in 10.0 mi Calm Calm - N/A   Overcast
2:15 AM 46.4 °F - 41.0 °F 81% 30.06 in 10.0 mi Calm Calm - N/A   Overcast
2:35 AM 46.4 °F - 42.8 °F 87% 30.05 in 5.0 mi Calm Calm - N/A Rain Light Rain
2:55 AM 46.4 °F - 42.8 °F 87% 30.05 in 10.0 mi Calm Calm - N/A   Overcast
3:15 AM 46.4 °F - 42.8 °F 87% 30.06 in 10.0 mi Calm Calm - N/A   Overcast
3:55 AM 46.4 °F - 42.8 °F 87% 30.06 in 10.0 mi Calm Calm - N/A   Overcast
4:15 AM 46.4 °F - 42.8 °F 87% 30.06 in 10.0 mi Calm Calm - N/A   Mostly Cloudy
4:35 AM 46.4 °F - 42.8 °F 87% 30.06 in 10.0 mi Calm Calm - N/A   Overcast
4:55 AM 46.4 °F - 42.8 °F 87% 30.06 in 10.0 mi Calm Calm - N/A   Overcast
5:15 AM 46.4 °F - 41.0 °F 81% 30.07 in 10.0 mi Calm Calm - N/A   Overcast
5:35 AM 46.4 °F - 41.0 °F 81% 30.07 in 10.0 mi Calm Calm - N/A   Overcast
5:55 AM 46.4 °F 45.2 °F 41.0 °F 81% 30.08 in 10.0 mi West 3.5 mph - N/A   Overcast
6:15 AM 46.4 °F - 42.8 °F 87% 30.09 in 10.0 mi Calm Calm - N/A   Overcast
6:35 AM 46.4 °F - 42.8 °F 87% 30.09 in 10.0 mi Calm Calm - N/A   Overcast
6:55 AM 46.4 °F 45.2 °F 42.8 °F 87% 30.09 in 10.0 mi SW 3.5 mph - N/A   Overcast
7:15 AM 46.4 °F - 44.6 °F 93% 30.10 in 10.0 mi Calm Calm - N/A   Overcast
7:35 AM 46.4 °F - 42.8 °F 87% 30.11 in 10.0 mi Calm Calm - N/A   Overcast
7:55 AM 48.2 °F - 42.8 °F 82% 30.11 in 10.0 mi Calm Calm - N/A   Overcast
8:15 AM 48.2 °F - 42.8 °F 82% 30.12 in 10.0 mi Calm Calm - N/A   Overcast
8:35 AM 48.2 °F - 42.8 °F 82% 30.12 in 10.0 mi Calm Calm - N/A   Mostly Cloudy
8:55 AM 50.0 °F - 44.6 °F 82% 30.12 in 10.0 mi SE 3.5 mph - N/A   Mostly Cloudy
9:15 AM 50.0 °F - 44.6 °F 82% 30.12 in 10.0 mi South 3.5 mph - N/A   Overcast
9:35 AM 51.8 °F - 44.6 °F 76% 30.12 in 10.0 mi SW 4.6 mph - N/A   Mostly Cloudy
9:55 AM 51.8 °F - 42.8 °F 71% 30.12 in 10.0 mi Calm Calm - N/A   Overcast
10:15 AM 53.6 °F - 44.6 °F 72% 30.12 in 10.0 mi South 3.5 mph - N/A   Overcast
10:35 AM 55.4 °F - 42.8 °F 63% 30.12 in 10.0 mi South 4.6 mph - N/A   Mostly Cloudy
10:55 AM 55.4 °F - 44.6 °F 67% 30.12 in 10.0 mi ESE 3.5 mph - N/A   Scattered Clouds
11:15 AM 55.4 °F - 41.0 °F 58% 30.12 in 10.0 mi NNW 4.6 mph - N/A   Mostly Cloudy
11:35 AM 55.4 °F - 42.8 °F 63% 30.13 in 10.0 mi North 12.7 mph - N/A   Overcast
11:55 AM 57.2 °F - 44.6 °F 63% 30.12 in 10.0 mi NNW 12.7 mph - N/A   Overcast
12:15 PM 57.2 °F - 41.0 °F 55% 30.12 in 10.0 mi NNW 11.5 mph - N/A   Mostly Cloudy
12:35 PM 59.0 °F - 39.2 °F 48% 30.11 in 10.0 mi Calm Calm - N/A   Partly Cloudy
12:55 PM 60.8 °F - 41.0 °F 48% 30.10 in 10.0 mi NW 8.1 mph - N/A   Scattered Clouds
1:15 PM 59.0 °F - 41.0 °F 51% 30.10 in 10.0 mi North 10.4 mph 16.1 mph N/A   Scattered Clouds
1:35 PM 59.0 °F - 41.0 °F 51% 30.10 in 10.0 mi NW 9.2 mph - N/A   Scattered Clouds
1:55 PM 60.8 °F - 41.0 °F 48% 30.10 in 10.0 mi NNW 6.9 mph - N/A   Scattered Clouds
2:15 PM 62.6 °F - 39.2 °F 42% 30.09 in 10.0 mi Calm Calm - N/A   Scattered Clouds
2:35 PM 62.6 °F - 41.0 °F 45% 30.09 in 10.0 mi NNW 5.8 mph - N/A Thunderstorm Partly Cloudy
2:55 PM 62.6 °F - 39.2 °F 42% 30.08 in 10.0 mi NW 5.8 mph - N/A   Scattered Clouds
3:15 PM 64.4 °F - 39.2 °F 40% 30.08 in 10.0 mi WNW 3.5 mph 17.3 mph N/A   Scattered Clouds
3:35 PM 64.4 °F - 37.4 °F 37% 30.07 in 10.0 mi SW 3.5 mph - N/A   Mostly Cloudy
3:55 PM 64.4 °F - 37.4 °F 37% 30.07 in 10.0 mi Calm Calm - N/A   Mostly Cloudy
4:15 PM 64.4 °F - 37.4 °F 37% 30.06 in 10.0 mi NW 3.5 mph - N/A   Mostly Cloudy
4:35 PM 64.4 °F - 35.6 °F 34% 30.06 in 10.0 mi Calm Calm - N/A   Mostly Cloudy
4:55 PM 66.2 °F - 35.6 °F 32% 30.06 in 10.0 mi NE 4.6 mph - N/A   Scattered Clouds
5:15 PM 66.2 °F - 32.0 °F 28% 30.06 in 10.0 mi NNE 4.6 mph - N/A   Scattered Clouds
5:35 PM 66.2 °F - 32.0 °F 28% 30.05 in 10.0 mi NW 3.5 mph - N/A   Partly Cloudy
5:55 PM 66.2 °F - 32.0 °F 28% 30.05 in 10.0 mi Calm Calm - N/A   Scattered Clouds
6:15 PM 66.2 °F - 33.8 °F 30% 30.05 in 10.0 mi NNW 5.8 mph - N/A   Mostly Cloudy
6:35 PM 66.2 °F - 32.0 °F 28% 30.05 in 10.0 mi North 6.9 mph - N/A   Mostly Cloudy
6:55 PM 66.2 °F - 32.0 °F 28% 30.05 in 10.0 mi East 8.1 mph - N/A   Overcast
7:15 PM 64.4 °F - 32.0 °F 30% 30.05 in 10.0 mi NNE 10.4 mph - N/A   Mostly Cloudy
7:35 PM 62.6 °F - 33.8 °F 34% 30.05 in 10.0 mi NE 6.9 mph - N/A   Scattered Clouds
7:55 PM 62.6 °F - 35.6 °F 37% 30.06 in 10.0 mi NNE 5.8 mph - N/A   Mostly Cloudy
8:15 PM 60.8 °F - 35.6 °F 39% 30.07 in 10.0 mi NE 6.9 mph - N/A   Overcast
8:35 PM 59.0 °F - 35.6 °F 42% 30.07 in 10.0 mi NE 6.9 mph - N/A   Scattered Clouds
9:55 PM 59.0 °F - 39.2 °F 48% 30.10 in 10.0 mi North 12.7 mph 20.7 mph N/A   Mostly Cloudy
10:15 PM 59.0 °F - 41.0 °F 51% 30.11 in 10.0 mi North 12.7 mph - N/A   Overcast
10:55 PM 57.2 °F - 41.0 °F 55% 30.13 in 10.0 mi North 12.7 mph - N/A   Overcast
11:35 PM 57.2 °F - 41.0 °F 55% 30.13 in 10.0 mi North 10.4 mph - N/A   Mostly Cloudy